Preview of NWS' New Version of Forecast
This preview is not operational and should not be used for support decisions.
Latest weather observations around

Santa Monica, Santa Monica Municipal Airport (KSMO)

Using English Units (Switch to International System of Units)
Date/ Time (PDT) Wind (mph) Vis. (mi) Weather Sky Cond. Temp (°F) Rel. Humidity Wind Chill (°F) Heat Index (°F) Pressure Precip. (in)
Air Dwpt 6 hour Altimeter (inHg) Sea level (inHg) 1 hr 3 hr 6 hr
Max Min
Apr 22 00:51 NNE 3 10 Clear CLR 57 52     83%     29.97 29.97      
Apr 21 23:51 Calm 10 Clear CLR 58 53     84%     29.98 29.98      
Apr 21 22:51 ESE 3 10 Clear CLR 58 53     84%     29.98 29.97      
Apr 21 21:51 Calm 10 Clear CLR 59 53     81%     29.97 29.97      
Apr 21 20:51 SSE 6 10 Clear CLR 59 53     81%     29.97 29.96      
Apr 21 19:51 S 6 10 Clear CLR 59 52     78%     29.96 29.96      
Apr 21 18:51 S 7 10 Clear CLR 61 52     72%     29.96 29.95      
Apr 21 17:51 SSW 8 10 Clear CLR 62 52     70%     29.96 29.96      
Apr 21 16:51 WSW 9 10 Clear CLR 62 52     70%     29.97 29.96      
Apr 21 15:51 WSW 9 10 Clear CLR 65 51     61%     29.97 29.97      
Apr 21 14:51 WSW 10 10 Clear CLR 69 47     45%     30 29.99      
Apr 21 13:51 SW 11 10 Clear CLR 67 49     52%     30.02 30.01      
Apr 21 12:51 WSW 10 10 Clear CLR 67 49     52%     30.03 30.03      
Apr 21 11:51 SSW 9 10 Clear CLR 71 48     44%   70 30.04 30.04      
Apr 21 10:51 WSW 7 10 Clear CLR 69 49     49%     30.05 30.05      
Apr 21 09:51 Calm 10 Clear CLR 69 49     49%     30.06 30.06      
Apr 21 08:51 ENE 5 10 Clear CLR 64 49     58%     30.07 30.06      
Apr 21 07:51 NNE 3 10 Clear CLR 57 49     74%     30.08 30.08      
Apr 21 06:51 Calm 8 Clear CLR 52 49     89%     30.06 30.06      
Apr 21 05:51 Calm 10 Clear CLR 51 49     92%     30.05 30.05      
Apr 21 04:51 NW 3 7 Partly Cloudy SCT011 52 51     97%     30.05 30.05      
Apr 21 03:51 WSW 3 7 Clear CLR 54 52     93%     30.05 30.05      
Apr 21 02:51 Calm 10 Clear CLR 53 48     83%     30.05 30.05      
Apr 21 01:51 Calm 10 Clear CLR 54 48     80%     30.07 30.07      
Apr 21 00:51 Calm 10 Clear CLR 56 50     80%     30.1 30.09      
Apr 20 23:51 Calm 10 Clear CLR 56 50     80%     30.1 30.1      
Apr 20 22:51 Calm 10 Clear CLR 56 50     80%     30.11 30.1      
Apr 20 21:51 Calm 10 Clear CLR 56 50     80%     30.11 30.11      
Apr 20 20:51 Calm 10 Clear CLR 56 51     84%     30.09 30.09      
Apr 20 19:51 WSW 6 10 Clear CLR 57 51     81%     30.08 30.08      
Apr 20 18:51 SW 7 10 Clear CLR 59 50     72%     30.06 30.06      
Apr 20 17:51 WSW 11 10 Clear CLR 59 52     78%     30.06 30.06      
Apr 20 16:51 SW 13 10 Partly Cloudy SCT010 60 53     78%     30.06 30.06      
Apr 20 15:51 WSW 8 10 Mostly Clear FEW012 61 52     72%     30.06 30.05      
Apr 20 14:51 WSW 11 10 Clear CLR 61 51     70%     30.07 30.06      
Apr 20 13:51 SW 14 10 Clear CLR 64 48     56%     30.07 30.07      
Apr 20 12:51 WSW 11 10 Clear CLR 65 49     56%     30.09 30.09      
Apr 20 11:51 E 3 10 Clear CLR 69 47     45%     30.08 30.08      
Apr 20 10:51 Calm 10 Clear CLR 65 47     52%     30.12 30.11      
Apr 20 09:51 3 10 Clear CLR 58 47     67%     30.14 30.14      
Apr 20 09:37 S 3 10 Partly Cloudy SCT021 58 47     67%     30.14        
Apr 20 08:51 SSW 5 10 Cloudy OVC021 57 48     72%     30.15 30.14      
Apr 20 07:51 ESE 3 10 Mostly Cloudy BKN017 55 47     74%     30.14 30.14      
Apr 20 06:51 NE 5 10 Mostly Cloudy BKN012 53 47     80%     30.13 30.12      
Apr 20 06:23 NE 5 10 Mostly Cloudy BKN014 52 47     83%     30.12        
Apr 20 05:51 NNE 3 10 Clear CLR 51 46     83%     30.11 30.11      
Apr 20 04:51 ENE 5 10 Clear CLR 51 46     83%     30.1 30.1      
Apr 20 03:51 NE 3 10 Clear CLR 51 47     86%     30.09 30.09      
Apr 20 02:51 Calm 10 Clear CLR 52 47     83%     30.08 30.08      
Apr 20 01:51 Calm 10 Clear CLR 53 47     80%     30.07 30.06      
Apr 20 00:51 ENE 5 10 Clear CLR 53 48     83%     30.06 30.06      
Apr 19 23:51 Calm 10 Clear CLR 54 48     80%     30.04 30.04      
Apr 19 22:51 E 6 10 Clear CLR 53 48     83%     30.03 30.03      
Apr 19 21:51 Calm 10 Clear CLR 54 48     80%     30.03 30.03      
Apr 19 20:51 SE 3 10 Clear CLR 55 48     77%     30.01 30.01      
Apr 19 19:51 Calm 10 Clear CLR 56 48     75%     30.01 30      
Apr 19 18:51 SW 7 10 Clear CLR 57 48     72%     30 30      
Apr 19 17:51 WSW 20 10 Mostly Clear and Windy FEW085 58 47     67%     29.99 29.99      
Apr 19 16:51 WSW 11 10 Clear CLR 58 46     65%     30 30      
Apr 19 15:51 WSW 14 10 Clear CLR 59 40     49%     30.02 30.01      
Apr 19 14:51 SW 14 10 Clear CLR 59 41     51%     30.04 30.04      
Apr 19 13:51 WSW 9 10 Partly Cloudy SCT060 58 41     53%     30.05 30.05      
Apr 19 12:51 SW 9 10 Mostly Clear FEW055 59 41     51%     30.05 30.04      
Apr 19 11:51 WSW 9 10 Partly Cloudy SCT040 56 41     57%     30.06 30.05      
Apr 19 10:51 S 8 10 Clear CLR 56 43     62%     30.05 30.05     0
Apr 19 09:51 SSW 5 10 Mostly Clear FEW014 FEW041 53 45     74%     30.05 30.05      
Apr 19 06:51 Calm 6 Light Rain BKN050 OVC060 50 44     80%     30.02 30.02 0    
Apr 19 05:51 Calm 10 Mostly Cloudy BKN075 49 44     83%     30 30      
Apr 19 04:51 Calm 10 Clear CLR 50 44     80%     30.01 30      
Apr 19 03:51 3 10 Clear CLR 50 44     80% 49   30 30      
Apr 19 02:51 WSW 6 10 Clear CLR 49 44     83% 46   30 30      
Apr 19 01:51 S 5 10 Clear CLR 51 45     79%     30 30      
Apr 19 00:51 S 6 10 Clear CLR 52 45     77%     30.01 30      
Jun 11 14:51 WSW 11 10 Mostly Clear FEW022 67 54     63%     29.92 29.92      
Jun 11 03:51 SSW 3 10 Cloudy OVC013 62 57     84%     29.86 29.85      
Jun 10 14:51 WSW 8 10 Mostly Cloudy BKN016 67 58     73%     29.89 29.88      
Jun 09 19:51 SW 10 10 Partly Cloudy SCT009 64 60     87%     29.9 29.89      
Notice The following observation data may not be complete
Jun 09 09:51   10 Clear CLR          %              
Jun 09 03:42 Calm 10 Partly Cloudy SCT013 59 56     90%     29.94        
Jun 08 11:29 WSW 7 9 Cloudy BKN008 OVC013 62 59     90%     30.04        
Jun 08 10:48 WSW 7 10 Cloudy BKN008 OVC015 63 61     94%     30.03   0    
Jun 07 23:47 SW 7 4 Light Rain and Fog/Mist OVC003 61 61     100%     29.99   0    
Jun 07 09:51 SW 6 8 Cloudy FEW008 OVC010 63 59     87%     29.96 29.96